Location: Happy Homes Park
(37.7458°N, 99.9763°W)
Time: 17:46:14
(UTC+00:00)

DMSP B5D2-2 - Pass Details

Date: 06 October 2022
Orbit: 788 x 806 km, 98.3° (Epoch: 27 November)

Event Time Altitude Azimuth Distance (km) Brightness Sun altitude
Rises 12:00:44 0° 170° (S) 3,293 7.4 -8.6°
Reaches altitude 10° 12:03:04 10° 171° (S) 2,369 6.7 -8.1°
Maximum altitude 12:08:18 76° 257° (WSW) 830 4.1 -7.1°
Drops below altitude 10° 12:13:36 10° 344° (NNW) 2,393 6.4 -6.0°
Sets 12:15:58 0° 346° (NNW) 3,328 7.1 -5.6°
